Location: *
(50.9167°S, 179.4000°W)
Time: 20:16:01
(UTC+00:00)

Cosmos 407 Rocket - Pass Details

Date: 03 March 2024
Orbit: 741 x 785 km, 74.0° (Epoch: 16 April)

Event Time Altitude Azimuth Distance (km) Brightness Sun altitude
Exits shadow 16:18:18 16° 307° (NW) 1,974 5.0 -11.8°
Maximum altitude 16:22:23 46° 238° (WSW) 1,045 4.0 -11.2°
Drops below altitude 10° 16:27:30 10° 164° (SSE) 2,334 6.6 -10.5°
Sets 16:29:59 0° 158° (SSE) 3,259 7.5 -10.1°
